Weather in Lada

Russia / Republic of Mordovia     54°35′03″N   45°25′23″E
temp.,
°C
wind,
m/s
gust,
m/s
humid.,
%
clouds,
%
prec.,
mm/h
press.,
hPa
HPBL,
m
4 march, thu
thu400:00−6wsw5139533 0.1 1008369
03:00−3wsw6129367 0.1 1006631
06:00−2wsw71394100 0.3 1003729
09:00−1sw91592100 0.6 1000882
12:000wsw91594100 0.5 9981051
15:000wsw101695100 0.6 9971034
18:000w71394100 0.2 999749
21:00−2w3794100 0.7 1000207
5 march, fri
fri500:00−4w2497100 0.1 999104
03:00−4nnw2397100 1.0 1000125
06:00−7n2396100 0.4 100267
09:00−8nnw2493100 0.4 1004184
12:00−6nw238960 0.0 1006336
15:00−5w349067 0.0 1008361
18:00−9sw33924 0.0 100921
21:00−8sw369545 0.1 1012131
6 march, sat
sat600:00−8w4896100 0.1 1012234
03:00−13w349787 0.2 101473
06:00−15wnw339437 0.0 101522
09:00−14nw249218 0.0 1016177
12:00−11nw23820 0.0 1016352
15:00−10wnw23820 0.0 1015406
18:00−15wsw11890 0.0 101520
21:00−16sw12862 0.0 101620
7 march, sun
sun700:00−15sw229066 0.0 101523
03:00−14ssw359683 0.3 101499
06:00−13sw3696100 0.3 1014158
09:00−12sw489698 0.4 1012262
12:00−8sw7128365 0.0 1009701
15:00−7ssw9148783 0.0 1006916
18:00−6ssw91793100 0.4 10021097
21:00−5sw101792100 1.1 999974
8 march, mon
mon800:00−7wnw71386100 0.8 998923
03:00−12wsw5128367 0.8 1001210
06:00−13sw511810 0.0 1002199
09:00−11ssw612780 0.0 1001311
12:00−6ssw6118133 0.0 998564
15:00−4ssw359667 1.3 996391
18:00−8w91585100 1.1 998972
21:00−8wnw101686100 1.8 1002888